STARLINK-36200, 67101

Orbit data source: Space-Track

STARLINK-36200, 67101 is a payload satellite owned by SpaceX/Seattle (US) in LEO that was launched on Sun, 14 Dec 2025 UTC via an FALCON 9 launch vehicle from the Air Force Western Test Range (AFWTR). Payload-class satellites include a variety of spacecraft equipped with specific instruments for various scientific and technological missions. These include communications satellites like Starlink; space stations such as the ISS; scientific satellites like the Hubble; Earth observation satellites from companies like Planet Labs, Umbra, and HawkEye 360; GPS; miniature CubeSats for education and research; and military/defense satellites.

Loading next visibility...
Identifier
67101, 2025-298AC
Orbit
LEO
Country
Flag of USUS
Related business
Manufacturer
SpaceX/Seattle
Mission
Operational Commercial Communications
Bus & Motor
STARLINK V2MO, Unknown motor
Mass
575 kg wet, ~530 kg dry
Launch date (UTC)
2025-12-14 (6 months ago)
Launch vehicle
FALCON 9
Launch site
Air Force Western Test Range (AFWTR)
Object type
Payload
Rocket body
Debris
Shape & HBR
Box + 2 Pan, 17.7 m
Radar Cross Section
36.964 m², Large (>1 m²)

Expand to show TLE details & history
Last TLE update: 18 hours ago

TLE from 18 hours ago
0 STARLINK-36200
1 67101U 25298AC  26171.23333998  .00000406  00000-0  41846-4 0  9995
2 67101  70.0017 116.0605 0002709 267.6210  92.4639 14.98339295 28571
Epoch: 2026-06-20T05:36Z
TLE epoch observation values (Epoch: 2026-06-20T05:36:00.574Z)
Latitude
-0°
Longitude
123.6072°
Altitude
574.533 km
Speed
7.574 km/s
True Right ascension
07h 44m 14s
True Declination
0° 00' 00"
Sunlit
Object was in daylight at epoch
Visualization orbit readout
Latitude
Unknown
Longitude
Unknown
Altitude
Unknown
Speed
Unknown
Apparent Right ascension
Unknown
Apparent Declination
Unknown
Sunlit
N/A
Visualization observer readout
Local Sidereal Time
10:19:49
Azimuth
Unknown
Elevation
Unknown
Doppler factor
Unknown
Orbital elements
Apogee altitude
571.857 km
Perigee altitude
568.093 km
Semi-major axis
6,948.112 km
Eccentricity
0.00027
Inclination
70.0017°
RAAN
116.0605°
Arg. of periapsis
267.621°
True anomaly
92.49491°
Mean anomaly
92.4639°
Eccentric anomaly
92.47941°
Mean motion
3.74751 °/min
Orbital period
96.06 mins
BSTAR
0.000041846
Loading maneuver chart data...
Computing Atmospheric mass density...
Loading historical data...
Loading historical data...
Loading historical data...
Loading historical data...
Loading historical data...
Loading historical data...
Loading historical data...

Documentation

Showing up to 5 results
|